Location: Allos
(44.2333°N, 6.6333°E)
Time: 23:51:16
(UTC+00:00)

X-37B - Visible Passes

Search period start: 05 March 2021 00:00
Search period end: 15 March 2021 00:00
Orbit: 383 x 391 km, 45.0° (Epoch: 27 February)

Date Brightness Start Highest point End Pass type
(mag) Time Alt. Az. Time Alt. Az. Time Alt. Az.
10 Mar 2.9 18:40:11 10° SSE 18:41:13 12° SSE 18:41:13 12° SSE visible
11 Mar 2.1 19:16:30 10° SW 19:18:22 26° SSW 19:18:22 26° SSW visible
12 Mar 2.2 18:18:43 10° SSW 18:21:11 21° SSE 18:23:05 13° ESE visible
12 Mar 3.1 19:54:19 10° WSW 19:55:23 19° WSW 19:55:23 19° WSW visible
13 Mar 0.8 18:56:04 10° WSW 18:59:12 52° SSE 18:59:58 40° ESE visible
14 Mar 1.3 19:34:12 10° W 19:36:45 53° W 19:36:45 53° W visible
